Location: Obersdorf
(47.4079°N, 10.2781°E)
Time: 10:48:20
(UTC+01:00)

XW-2C - Pass Details

Date: 04 December 2021
Orbit: 503 x 523 km, 97.5° (Epoch: 15 January)

Event Time Altitude Azimuth Distance (km) Brightness Sun altitude
Rises 18:36:55 0° 212° (SSW) 2,614 ? -20.8°
Reaches altitude 10° 18:39:57 10° 240° (WSW) 1,740 ? -21.3°
Maximum altitude 18:41:50 13° 270° (W) 1,544 ? -21.6°
Drops below altitude 10° 18:43:44 10° 301° (WNW) 1,754 ? -21.9°
Sets 18:46:50 0° 329° (NNW) 2,654 ? -22.4°
